STARLINK-30212 (57506 NORAD) Tracking and Keplerian Element Data

This shows tracking and keplerian element data for the satellite.

Feedback or suggestion? Click here.




ElementValue
Catalog57506
NameSTARLINK-30212
Epoch Orbit2514
Epoch Day12.92231557
Epoch Year2024
RAAN332.9366
Inclination43.004
Eccentricity0.0001444
Argument of Perigee264.9989
Mean Anonmoly95.0689
Mean Motion15.0253535
Decay Rate0.00010619
L11 57506U 23113M 24012.92231557 .00010619 00000+0 80000-3 0 9993
L22 57506 43.0040 332.9366 0001444 264.9989 95.0689 15.02535350 25146



Live tracking and technical data element details for STARLINK-30212 (NORAD 57506). STARLINK-30212 can be tracked NOW for your location showing map with azimuth and elevation plus other details from your city location.







IsCatalogInMostPopularTable: catalog: 57506, numindb: 37
Update: records affected: 1



GetName: 57506 STARLINK-30212

Hit Count: updated at: Thu, 22 Feb 2024 01:39:03 GMT